星链-37708(STARLINK-37708)

导读

STARLINK-37708(NORAD编号69469)是美国SpaceX公司星链低轨通信星座的组网卫星,属于Starlink V1.0技术序列。该卫星大概率为2026年上半年新发射入网的星链组网卫星,主要承担全球宽带互联网接入服务任务,可向偏远地区、海洋及空域场景提供高速低延迟网络传输能力。目前该卫星处于在轨运行状态,是SpaceX截至2026年在轨部署超1万颗星链卫星的组成部分,其精确轨道参数、具体发射批次等详细信息需通过NORAD官方目录、Celestrak等专业航天数据平台进一步查询。

基本信息
目录编号:
69469
目录名称:
STARLINK-37708
国际标识:
2026-127AC
轨道中心:
EARTH
卫星名称:
星链-37708
卫星全名:
星链-37708(STARLINK-37708)
卫星状态:
在轨 (已飞行88 天)
发射日期:
2026-06-08 UTC
国别 :
美国 (US)
星等 :
--
轨道信息
数据来源 国际轨道数据
星历时间: 2026-09-03T17:15:56+0800
19小时前
查看轨道信息
半长轴: 6840.838km
偏心率: 0.0002154
轨道倾角: 53.159°
近地点辐角 49.301°
升交点赤经 245.785°
平近点角 310.818°
近地点: 461.227km
远地点: 464.175km
周期: 93.848分钟
每日圈数: 15.344008
详细信息
固有亮度:
5
最大亮度:
2.5
卫星平台:
Starlink V1.0
覆盖范围:
全球
运营商:
太空探索技术公司
运营商所在国:
美国
制造商(研发单位):
太空探索技术公司
制造商所在国:
美国
使用方式:
暂无
卫星简介
Starlink 计划是 SpaceX 推出的全球卫星互联网项目,通过发射低轨道卫星,为全球尤其是偏远地区提供高速、低延迟的互联网服务。自 2019 年起,Starlink 已部署数千颗卫星,旨在缩小全球数字鸿沟,推动互联网普及。该项目还为军事、航空等行业提供通信支持,带来广泛经济效益。
2D轨道图
3D轨道图
轨道高度分析图
轨道倾角分析图
轨道综合分析图
查看轨道综合分析图